Temp
59 57 57 56 55 54 51 48 41 58 63 51 51 46 45 46 46 49 46 45 43 42 42 40 40 41 46 53 49 41 47 40 35 41 53 56 53 43 41 33 41 47 49 52
56 56 55 54 53 52 45 42 47 58 58 38 40 44 44 46 43 44 42 42 44 45 40 34 41 42 49 49 46 42 45 39 30 36 46 52 41 37 37 37 36 37 41 49
55 54 53 52 51 50 47 41 37 49 51 50 48 43 42 40 45 43 44 43 45 41 40 43 38 40 46 46 45 47 45 37 32 27 34 40 35 33 35 35 29 29 33 36
54 53 52 51 51 50 48 47 41 47 36 41 46 47 44 40 36 43 45 41 41 39 32 36 37 42 42 45 47 47 44 32 38 39 42 42 41 40 36 33 34 30 34 31
53 52 51 50 51 51 45 39 39 44 40 45 41 40 39 39 42 41 40 39 42 42 35 37 33 39 39 38 44 42 45 33 37 33 40 41 38 42 43 41 40 35 37 36
53 52 51 50 51 51 43 46 46 47 39 41 40 40 40 40 44 44 46 44 41 38 41 46 46 46 45 44 40 38 37 34 31 26 37 37 31 40 42 44 47 45 35 43
54 53 52 51 51 50 48 51 50 41 34 40 41 44 45 43 44 42 45 46 41 45 52 50 47 45 44 44 42 44 35 32 32 26 32 18 38 49 49 47 48 51 50 46
55 53 52 53 51 51 50 50 49 41 34 43 44 43 43 45 46 42 43 46 50 53 46 33 30 36 36 39 44 43 43 35 26 22 25 33 38 45 45 44 43 52 51 51
54 53 52 53 52 52 52 52 55 50 36 38 48 43 45 40 40 41 43 49 52 48 37 30 24 26 33 32 37 47 44 41 30 28 21 20 39 47 55 53 37 54 55 53
53 53 52 53 53 53 52 52 53 50 37 49 48 43 42 48 45 41 44 43 42 47 32 27 28 29 39 30 31 33 32 31 25 27 23 33 46 47 53 35 40 55 55 56
52 53 53 54 54 54 52 51 54 50 39 47 50 51 46 46 45 37 44 39 40 36 29 31 33 31 36 34 39 36 33 28 28 30 24 23 51 49 41 48 55 55 55 55
52 54 54 54 54 54 54 50 54 56 44 46 54 54 56 54 52 47 45 41 42 43 35 37 37 32 36 35 29 40 28 38 33 33 36 47 48 46 54 57 55 55 55 56
51 51 50 51 53 54 53 52 52 50 41 41 42 43 53 57 56 58 39 42 46 43 47 37 34 29 36 29 34 37 44 47 38 39 45 48 49 52 54 56 57 58 58 58
53 51 50 51 51 52 52 47 50 47 40 32 42 55 49 56 56 54 53 50 51 48 38 32 32 31 40 35 38 37 41 43 40 40 46 49 52 52 55 57 58 58 58 58
54 54 52 51 50 50 49 47 47 51 43 35 41 49 52 54 54 52 52 49 47 41 34 31 31 39 37 41 41 37 45 41 37 35 47 43 50 54 58 56 56 58 57 57
53 53 53 53 52 49 40 33 38 47 46 34 31 46 46 49 50 49 48 48 46 42 36 35 38 44 37 32 33 45 49 51 50 46 52 52 54 56 58 57 57 58 57 58
52 53 52 52 53 44 37 37 43 45 41 33 30 33 43 46 46 46 46 46 42 38 35 35 39 39 39 35 32 44 49 51 52 53 52 48 52 50 57 58 58 58 58 57
51 51 52 51 51 45 40 44 46 44 36 35 29 31 36 44 38 37 43 37 38 36 36 40 37 40 39 30 42 47 50 51 51 51 53 52 54 55 54 57 56 54 54 55
51 51 50 44 38 35 38 47 46 44 40 31 32 30 29 43 41 39 36 37 30 40 32 36 38 35 30 39 44 46 49 49 49 51 51 51 50 51 53 54 54 52 53 55
49 45 40 33 36 44 45 39 34 34 35 38 32 40 33 41 39 33 34 36 32 27 36 42 32 34 44 47 49 51 51 52 52 46 45 46 47 50 52 52 54 54 55 55
38 36 36 40 44 39 35 30 30 31 28 33 37 38 37 46 37 35 38 33 33 26 35 33 33 35 44 51 52 54 54 53 52 51 51 50 48 49 50 51 53 54 55 54
41 39 39 38 35 32 29 27 30 29 29 34 33 36 41 43 46 38 35 30 32 25 39 31 29 42 49 51 51 52 52 50 49 50 48 49 49 51 51 51 52 53 54 55
44 37 32 31 29 24 24 20 26 28 35 36 36 32 37 38 39 35 33 27 27 39 29 29 38 46 50 51 51 50 50 50 49 49 50 50 50 50 49 47 50 53 53 55
33 29 23 26 23 28 30 31 33 38 40 38 39 33 33 36 32 32 27 33 33 26 26 30 43 47 50 51 50 48 48 48 48 48 48 48 48 47 47 44 46 50 51 53
31 31 24 25 33 35 37 37 36 39 42 40 34 35 35 31 29 31 29 25 24 30 31 41 48 48 47 46 47 47 47 48 47 47 46 46 47 46 43 44 44 49 52 53
31 30 28 34 33 30 34 37 35 40 40 40 39 30 28 28 28 25 26 26 26 34 42 46 47 46 46 46 47 48 48 47 47 47 46 46 45 43 41 41 42 49 52 53
30 30 38 39 40 35 36 41 40 42 36 32 32 26 26 33 26 24 34 32 38 44 46 47 46 45 46 47 47 47 46 46 46 46 47 45 45 42 40 38 42 47 50 52
MSLP
1011.50 1012.96 1014.40 1015.67 1016.52 1017.25 1017.84 1018.43 1018.23 1017.47 1017.00 1016.24 1016.25 1016.18 1016.83 1017.33 1017.63 1018.29 1018.42 1018.51 1018.47 1018.10 1017.99 1017.38 1017.08 1016.14 1016.22 1016.18 1016.69 1016.76 1016.52 1015.18 1012.76 1011.36 1010.14 1009.86 1008.99 1009.96 1010.03 1008.35 1006.90 1004.57 1002.98 1000.61
1011.27 1012.71 1014.04 1015.14 1016.23 1016.82 1018.23 1019.04 1018.41 1017.92 1017.19 1016.48 1016.66 1017.30 1017.71 1017.97 1018.12 1018.47 1019.01 1019.07 1019.34 1019.30 1019.31 1018.82 1017.96 1017.35 1017.03 1017.51 1017.54 1017.41 1017.06 1015.61 1013.75 1011.82 1011.16 1010.42 1010.93 1012.30 1012.67 1011.92 1010.12 1007.70 1004.99 1002.04
1011.08 1012.44 1013.95 1015.13 1016.13 1017.14 1018.09 1019.12 1018.28 1017.67 1017.11 1016.88 1016.26 1017.16 1017.70 1018.54 1018.93 1018.92 1019.52 1019.52 1019.81 1019.71 1019.37 1019.43 1018.98 1018.21 1017.44 1018.22 1018.36 1018.33 1018.14 1016.86 1015.67 1014.16 1012.79 1011.86 1012.41 1013.27 1013.52 1012.74 1011.82 1010.59 1008.55 1006.42
1012.19 1013.16 1014.13 1015.28 1015.82 1017.36 1017.95 1017.75 1017.18 1017.09 1016.98 1017.03 1016.81 1017.19 1017.82 1018.42 1019.22 1019.23 1019.60 1019.63 1019.69 1019.88 1020.13 1019.94 1019.04 1018.26 1018.06 1018.08 1017.83 1017.61 1017.47 1016.54 1015.76 1014.74 1013.78 1012.88 1011.90 1012.14 1013.14 1013.16 1012.74 1011.92 1009.96 1008.64
1014.02 1014.64 1015.26 1015.94 1016.34 1017.23 1018.08 1017.43 1017.27 1017.21 1016.60 1016.99 1017.38 1017.68 1017.91 1018.24 1018.70 1018.61 1018.96 1019.29 1019.58 1020.13 1020.21 1020.05 1019.32 1018.96 1018.22 1017.84 1017.64 1017.29 1016.83 1016.36 1016.10 1015.14 1014.32 1013.03 1011.86 1011.03 1011.17 1011.63 1011.66 1011.63 1011.15 1009.38
1013.18 1014.17 1015.09 1015.59 1016.29 1016.95 1017.75 1017.70 1017.18 1016.21 1016.35 1017.37 1017.33 1016.89 1017.41 1017.94 1018.46 1018.42 1018.60 1019.19 1019.70 1019.82 1019.93 1019.72 1019.35 1018.94 1018.16 1017.76 1017.60 1017.33 1017.22 1016.88 1016.48 1015.09 1014.32 1012.90 1011.25 1010.23 1009.61 1009.42 1009.43 1009.45 1009.33 1008.90
1012.26 1013.01 1013.69 1014.49 1015.76 1016.50 1016.77 1016.37 1016.59 1016.40 1015.42 1016.94 1016.89 1016.31 1016.79 1017.44 1017.99 1017.80 1018.32 1019.21 1019.40 1019.55 1019.87 1019.77 1019.13 1018.30 1017.55 1017.07 1016.60 1016.83 1016.88 1017.03 1016.89 1015.57 1014.58 1012.39 1010.95 1009.67 1008.39 1007.49 1007.39 1007.38 1007.40 1008.11
1012.04 1012.75 1014.01 1014.52 1015.31 1016.24 1016.50 1016.35 1016.13 1016.09 1015.66 1016.34 1016.46 1016.26 1016.68 1017.33 1018.01 1018.62 1018.30 1018.65 1018.99 1019.36 1019.91 1019.88 1018.64 1016.74 1016.11 1015.39 1014.77 1015.00 1015.63 1016.35 1016.34 1015.60 1013.94 1012.02 1010.32 1008.75 1007.28 1006.38 1006.68 1006.79 1006.22 1007.21
1012.55 1013.27 1014.14 1014.50 1015.17 1016.06 1016.06 1016.07 1015.75 1015.38 1016.24 1016.15 1015.56 1015.40 1016.06 1016.68 1017.16 1017.63 1017.99 1018.64 1019.18 1019.61 1020.05 1020.09 1018.40 1016.39 1015.15 1014.20 1013.70 1013.53 1014.17 1014.94 1015.64 1014.75 1013.45 1011.47 1008.83 1008.21 1006.48 1006.24 1005.96 1005.77 1005.63 1006.05
1012.59 1013.28 1013.84 1014.35 1014.58 1015.28 1015.71 1015.48 1015.94 1015.79 1016.18 1015.20 1015.33 1015.06 1015.66 1016.58 1016.40 1016.33 1017.04 1018.06 1018.83 1019.23 1019.69 1019.19 1017.85 1016.15 1014.89 1013.91 1013.38 1013.23 1013.88 1014.28 1014.12 1013.46 1012.72 1010.46 1008.84 1008.71 1007.13 1006.40 1005.62 1004.84 1005.60 1005.63
1012.78 1012.56 1012.89 1013.23 1014.06 1014.66 1015.23 1015.19 1015.89 1016.00 1016.08 1015.48 1015.37 1015.34 1015.83 1016.51 1016.22 1016.30 1016.80 1018.11 1018.51 1018.93 1019.04 1018.28 1017.09 1015.85 1014.74 1014.02 1013.26 1012.83 1013.00 1013.11 1012.73 1012.40 1011.56 1010.08 1008.47 1007.80 1007.09 1006.49 1005.91 1005.99 1006.28 1006.68
1012.58 1011.21 1011.73 1012.33 1012.79 1013.98 1014.89 1014.92 1015.56 1015.66 1016.39 1016.05 1015.72 1015.58 1015.95 1015.93 1015.94 1016.43 1017.27 1017.34 1017.17 1017.42 1017.89 1017.64 1017.03 1016.22 1015.32 1014.41 1012.85 1013.07 1012.89 1011.87 1011.66 1011.65 1010.07 1009.28 1009.28 1009.10 1007.37 1006.58 1006.19 1006.37 1006.42 1006.82
1012.03 1011.93 1011.63 1011.62 1012.05 1013.05 1013.88 1014.07 1014.92 1015.74 1016.68 1016.49 1016.09 1015.82 1015.86 1016.02 1016.15 1016.39 1017.08 1017.62 1017.56 1017.80 1018.00 1018.24 1017.92 1016.92 1015.72 1014.37 1012.86 1012.31 1011.32 1011.31 1010.97 1010.51 1009.22 1008.48 1008.22 1008.21 1007.87 1007.35 1006.73 1006.82 1006.88 1006.90
1011.68 1011.92 1012.01 1011.82 1011.86 1012.44 1013.02 1013.70 1014.26 1015.28 1016.46 1016.32 1014.32 1014.34 1015.08 1015.33 1015.89 1016.29 1016.75 1016.89 1017.08 1017.75 1018.82 1018.82 1017.88 1016.74 1015.68 1014.30 1013.22 1012.46 1011.94 1011.38 1010.48 1009.69 1008.71 1008.03 1007.60 1007.64 1007.18 1006.83 1007.02 1007.01 1007.18 1007.39
1011.57 1011.56 1011.83 1012.01 1012.08 1012.13 1012.39 1012.75 1013.35 1013.93 1014.48 1014.78 1014.13 1014.19 1013.98 1014.32 1014.90 1015.51 1016.38 1016.90 1017.08 1017.48 1018.41 1018.31 1017.35 1016.26 1015.55 1013.86 1012.82 1011.54 1010.85 1010.21 1009.82 1009.10 1008.28 1008.90 1007.17 1006.96 1006.43 1006.32 1006.54 1006.77 1006.80 1006.78
1011.20 1011.29 1011.39 1011.41 1011.66 1012.27 1012.90 1013.50 1013.50 1013.42 1013.99 1015.45 1014.91 1013.80 1013.71 1014.24 1014.82 1015.21 1015.85 1016.46 1016.75 1017.04 1017.46 1017.16 1016.37 1015.70 1015.54 1013.80 1011.68 1010.41 1009.86 1009.56 1009.35 1008.71 1008.19 1007.70 1007.21 1006.80 1006.68 1006.24 1006.31 1006.43 1006.72 1006.93
1010.74 1010.79 1010.91 1010.99 1011.16 1011.62 1012.38 1012.54 1012.17 1013.16 1014.36 1015.11 1014.94 1014.23 1014.03 1014.22 1014.97 1015.30 1015.60 1016.09 1016.48 1017.03 1017.09 1016.28 1015.55 1014.94 1014.82 1013.10 1011.37 1009.45 1009.22 1008.83 1008.49 1008.30 1008.09 1007.46 1007.09 1006.71 1006.53 1006.36 1006.27 1006.35 1006.50 1006.79
1010.13 1010.25 1010.44 1010.68 1010.91 1011.54 1011.64 1011.76 1012.25 1013.10 1014.33 1014.89 1014.31 1013.91 1014.05 1014.21 1014.24 1014.90 1015.48 1015.85 1016.50 1016.61 1016.05 1014.88 1014.25 1013.93 1013.50 1011.75 1009.54 1009.04 1008.40 1008.12 1007.99 1007.80 1007.65 1007.26 1006.87 1006.58 1006.49 1006.31 1006.21 1006.15 1006.16 1006.24
1009.03 1009.36 1009.79 1011.10 1011.64 1011.98 1011.46 1011.47 1012.37 1012.77 1013.63 1013.56 1013.45 1012.77 1012.83 1013.62 1013.33 1014.18 1015.53 1015.73 1015.51 1015.05 1014.59 1013.53 1013.36 1012.43 1011.25 1008.78 1008.75 1008.21 1007.78 1007.54 1007.40 1007.34 1007.31 1007.02 1006.42 1006.10 1006.03 1006.00 1005.83 1005.65 1005.48 1005.75
1007.86 1008.75 1009.30 1010.53 1011.23 1011.35 1011.70 1012.16 1012.64 1012.70 1012.93 1012.65 1012.39 1012.00 1011.65 1012.21 1012.84 1013.92 1014.43 1014.55 1014.08 1013.41 1012.61 1012.11 1011.80 1010.10 1008.49 1008.03 1007.67 1007.39 1007.17 1007.07 1007.06 1007.16 1006.94 1006.65 1006.21 1005.77 1005.43 1005.21 1005.11 1004.89 1004.66 1004.83
1007.51 1008.06 1009.02 1010.18 1010.74 1011.55 1011.80 1011.71 1011.75 1011.89 1012.10 1012.07 1011.61 1011.44 1010.86 1011.49 1011.64 1012.66 1013.33 1012.98 1012.60 1011.81 1010.80 1010.88 1009.47 1007.46 1006.48 1006.30 1006.17 1006.16 1006.33 1006.58 1006.82 1006.92 1006.82 1006.55 1006.33 1005.85 1005.35 1005.04 1004.80 1004.41 1004.08 1004.07
1006.49 1006.96 1009.41 1010.53 1011.02 1011.52 1011.47 1011.24 1011.38 1011.18 1010.59 1010.77 1010.65 1010.97 1011.00 1011.06 1011.63 1011.80 1012.89 1012.60 1012.27 1011.00 1010.47 1010.09 1007.96 1005.75 1005.42 1005.44 1005.48 1005.83 1006.24 1006.47 1006.58 1006.67 1006.61 1006.28 1006.03 1005.53 1005.23 1004.78 1004.36 1003.99 1003.64 1003.45
1005.89 1008.04 1009.61 1009.78 1010.44 1010.22 1009.82 1009.80 1009.72 1009.38 1009.22 1009.73 1010.30 1011.21 1011.40 1012.23 1012.20 1011.86 1012.02 1011.91 1011.17 1010.52 1010.08 1008.24 1006.08 1005.48 1005.14 1005.23 1005.31 1005.90 1006.20 1006.23 1006.34 1006.28 1006.02 1005.72 1005.49 1005.37 1005.22 1004.89 1004.37 1003.63 1003.04 1002.66
1007.16 1008.42 1009.44 1009.40 1009.21 1008.43 1007.88 1007.81 1007.92 1008.21 1008.29 1009.17 1009.90 1010.86 1011.02 1011.36 1011.73 1011.56 1011.17 1010.85 1010.52 1009.36 1007.80 1006.02 1005.02 1004.86 1004.85 1004.98 1005.49 1005.95 1005.90 1005.99 1005.94 1005.79 1005.56 1005.31 1005.07 1004.90 1004.99 1005.02 1004.35 1003.24 1002.23 1001.84
1007.50 1008.20 1008.07 1007.83 1007.44 1007.44 1007.54 1007.85 1008.23 1008.43 1008.60 1008.98 1009.91 1010.37 1010.61 1010.93 1011.02 1011.07 1010.79 1010.30 1009.02 1007.36 1005.86 1004.95 1004.56 1005.06 1005.39 1005.53 1005.70 1005.73 1005.69 1005.58 1005.50 1005.44 1005.23 1005.01 1004.81 1004.61 1004.62 1004.41 1003.81 1002.73 1001.55 1000.93
1007.52 1007.78 1007.58 1007.09 1006.98 1007.52 1007.71 1007.72 1007.99 1008.39 1008.52 1008.99 1009.41 1009.96 1009.93 1010.05 1010.30 1010.21 1009.45 1008.43 1006.96 1005.73 1005.25 1004.98 1005.22 1005.34 1005.38 1005.38 1005.45 1005.54 1005.48 1005.30 1005.10 1004.95 1004.74 1004.60 1004.49 1004.34 1004.20 1003.73 1002.94 1001.67 1000.63 999.98
1007.73 1007.39 1006.88 1006.34 1006.03 1006.62 1007.00 1007.16 1007.75 1008.45 1008.81 1008.68 1009.00 1009.19 1009.22 1009.53 1009.48 1009.02 1007.73 1006.48 1005.89 1005.34 1004.96 1005.22 1005.40 1005.44 1005.35 1005.36 1005.31 1005.26 1005.21 1004.98 1004.72 1004.57 1004.20 1004.12 1003.97 1003.90 1003.45 1002.91 1002.12 1001.30 1000.44 999.79
Wind_Speed
27 28 28 24 20 15 7 3 5 4 5 6 2 4 5 2 5 3 3 3 6 10 10 12 8 12 10 12 13 15 18 18 19 22 24 22 19 9 6 6 17 16 18 12
30 30 30 27 23 12 6 4 1 2 3 5 5 4 5 3 5 4 2 2 3 6 9 7 8 7 4 10 8 9 13 9 15 20 19 23 6 5 8 7 3 10 16 15
33 32 30 27 24 16 5 3 4 3 3 2 6 9 8 6 2 4 3 3 6 8 10 11 11 14 9 3 9 14 13 13 17 16 20 21 12 6 7 5 5 8 6 16
29 29 27 26 26 20 3 4 3 2 5 6 9 10 9 11 7 6 7 5 6 6 6 12 16 16 8 12 16 16 14 18 19 19 22 24 26 24 13 14 8 5 9 21
20 21 23 24 22 15 2 4 4 3 4 10 10 8 11 12 10 10 7 8 6 8 14 16 19 19 17 16 15 17 15 18 18 19 22 23 26 29 23 19 17 10 14 21
31 29 27 27 25 16 3 2 2 5 9 11 10 10 12 16 11 8 6 6 7 10 14 13 15 16 19 18 17 18 19 15 17 21 22 23 21 21 24 23 23 17 15 17
33 32 32 32 27 16 1 4 4 3 6 11 12 9 12 13 13 6 10 10 9 5 8 15 16 18 21 22 22 19 20 20 15 17 19 23 20 22 24 22 15 15 20 12
31 28 27 27 27 25 3 3 2 1 3 12 14 13 12 10 9 11 9 10 9 9 9 8 10 10 13 17 20 19 20 17 10 14 16 21 25 24 19 11 14 18 19 16
23 25 25 27 29 27 8 5 3 2 4 9 14 13 15 13 13 10 10 6 5 5 4 5 7 11 15 7 6 7 9 17 13 11 13 16 19 20 20 7 10 11 13 18
24 24 26 27 27 25 11 4 7 2 3 4 10 10 14 14 9 4 9 10 6 9 4 7 10 14 16 13 12 8 4 7 15 15 11 13 15 10 4 8 1 7 7 5
13 29 29 31 30 28 14 6 9 5 2 3 9 10 8 10 9 4 10 5 7 5 6 5 7 6 7 7 14 14 13 6 6 4 7 14 11 8 9 6 6 7 3 4
14 18 31 31 30 28 21 7 9 8 3 2 6 13 13 12 5 5 5 5 9 5 5 5 4 9 10 15 15 0 4 6 7 6 5 6 13 11 12 7 5 4 3 3
6 10 9 12 26 29 24 9 10 7 3 4 5 12 15 14 14 8 5 5 6 5 5 3 4 7 5 9 11 13 10 13 10 13 12 14 11 15 16 8 7 4 2 2
4 4 8 12 12 27 28 11 9 9 4 4 5 11 19 17 15 15 14 12 7 5 2 3 5 6 4 8 12 13 11 14 14 16 17 17 13 12 15 9 11 12 8 6
11 10 7 9 12 19 13 8 8 12 8 4 5 7 9 12 15 18 17 16 14 6 5 5 8 8 9 11 13 14 12 13 11 11 13 9 12 8 11 10 10 10 12 11
16 14 13 12 10 11 5 2 3 7 4 3 3 2 6 13 11 12 15 13 11 6 5 6 8 17 7 6 9 16 15 12 12 14 17 18 17 16 16 12 10 10 10 10
18 17 16 16 13 6 4 3 4 14 6 3 3 3 6 9 7 9 9 10 6 4 3 8 11 8 7 7 15 23 16 14 15 15 17 16 15 12 13 12 11 9 10 11
20 20 18 17 7 2 4 3 23 14 5 3 5 4 6 12 7 6 3 5 6 7 6 5 9 5 5 8 15 15 14 12 13 13 13 15 17 17 16 15 14 15 15 13
24 23 19 3 2 2 2 20 23 3 3 5 3 7 5 7 6 4 5 4 6 5 7 7 5 5 10 13 13 13 15 14 14 13 15 17 18 18 16 16 17 18 17 13
20 7 5 4 5 9 14 4 5 3 1 2 4 3 5 7 7 6 5 5 6 5 8 6 6 12 21 20 19 17 17 14 11 11 13 16 17 15 15 16 15 16 17 15
4 4 4 5 16 2 1 2 2 3 3 4 4 8 8 5 9 7 6 3 4 4 5 7 7 10 12 16 15 11 10 10 10 11 12 10 15 15 14 14 16 16 17 16
8 12 8 3 3 3 4 4 4 4 5 7 7 7 10 5 3 5 4 3 3 5 6 3 5 10 9 8 9 7 7 8 9 12 16 19 17 16 15 15 16 16 16 17
7 7 3 2 2 5 7 8 5 5 5 7 7 7 5 3 4 4 5 6 6 5 4 5 7 7 5 7 5 7 7 9 10 14 16 17 17 16 14 16 18 19 17 17
5 4 5 5 5 6 5 7 5 4 6 10 10 6 5 4 6 3 5 4 2 4 6 13 4 2 4 4 5 7 9 9 11 13 13 13 13 13 13 13 15 18 18 17
4 4 5 5 4 3 5 6 6 5 9 10 6 4 4 4 4 4 3 5 6 7 8 6 3 3 1 4 5 7 9 10 11 11 11 12 13 12 14 13 15 18 17 17
2 2 4 5 8 6 6 7 7 5 6 6 3 4 4 4 3 5 7 5 6 4 5 4 1 4 5 6 7 9 11 12 12 11 12 12 13 12 13 14 16 17 14 14
3 2 2 0 5 8 5 7 7 8 6 3 2 5 4 3 4 5 5 12 11 8 7 3 4 6 8 9 10 10 11 11 12 12 12 12 8 8 11 13 12 13 11 10
Wind_Direction
177 161 158 149 135 121 52 79 210 43 297 192 341 205 147 123 122 72 49 328 293 284 302 299 291 269 259 315 342 306 296 289 278 280 297 298 296 321 307 318 237 226 246 261
156 155 151 146 138 102 105 179 286 29 302 174 185 152 138 155 150 123 133 267 258 313 299 296 288 277 316 303 305 298 325 284 288 276 257 257 336 12 319 301 282 285 257 233
150 149 147 142 142 139 116 164 171 153 205 6 204 179 188 157 114 150 206 259 258 279 282 266 273 280 283 275 278 288 287 266 259 274 293 304 290 318 314 354 308 342 330 333
143 145 145 146 149 161 172 219 190 328 168 204 200 197 174 187 173 215 192 213 243 275 283 283 275 281 289 254 284 279 259 269 278 285 286 277 281 271 248 267 265 254 305 299
140 147 146 151 155 154 257 160 163 176 115 146 147 166 197 198 193 166 196 228 236 265 263 264 283 286 279 277 290 281 265 272 281 289 287 284 281 280 276 253 256 244 268 283
165 169 166 162 163 158 189 219 256 166 149 170 188 184 183 199 187 202 218 214 245 260 277 299 296 290 282 277 274 273 285 279 281 279 286 294 281 273 262 258 254 250 243 259
179 176 169 170 170 180 259 195 174 189 150 191 203 201 194 201 195 190 196 226 241 259 286 289 282 267 262 261 257 252 255 261 276 275 281 271 276 271 272 259 261 267 246 219
185 173 173 178 172 190 221 176 203 175 121 202 207 185 193 194 195 224 224 243 265 279 290 290 274 261 235 254 250 244 233 245 257 257 262 277 280 277 277 237 251 246 253 223
181 168 180 194 184 196 214 193 255 120 130 218 207 193 194 196 205 204 222 227 256 257 268 261 260 278 294 279 292 198 221 223 232 251 262 273 273 320 241 233 260 248 234 221
164 181 195 202 203 191 200 178 218 152 180 201 218 207 202 211 203 199 147 185 214 221 220 252 262 267 267 267 278 290 208 229 230 239 238 261 275 247 282 219 296 136 232 239
221 203 203 204 213 191 195 180 204 182 189 189 204 203 210 190 199 184 116 165 192 184 224 252 270 283 303 284 274 287 287 272 249 247 240 252 304 169 234 60 115 142 154 108
319 255 212 210 206 191 192 207 182 213 173 284 222 216 217 220 226 214 160 264 157 188 236 249 288 295 291 278 282 267 261 251 281 237 277 276 338 330 326 327 233 177 181 104
326 347 341 309 210 194 191 197 172 182 214 248 219 215 223 228 233 228 199 224 245 215 233 280 260 261 287 273 290 300 291 344 296 274 272 257 269 256 281 280 283 169 241 177
285 277 290 316 230 213 193 195 171 168 128 237 235 192 223 220 226 228 229 232 202 215 103 229 260 258 235 280 299 291 291 286 275 283 270 270 260 253 276 253 244 247 261 275
296 294 264 250 245 258 241 201 184 179 178 205 220 158 201 199 209 215 222 223 231 189 204 220 247 262 274 265 267 267 262 265 261 271 296 294 285 265 246 217 240 241 250 269
284 277 280 280 253 211 97 348 328 202 133 143 203 26 169 190 197 210 217 222 227 224 217 238 250 249 281 274 274 284 294 291 289 284 293 294 294 288 286 291 293 287 281 280
271 270 282 280 278 169 166 196 152 165 107 135 164 186 173 182 191 216 218 221 213 208 219 236 251 244 212 261 265 274 286 290 285 280 284 282 275 278 271 267 266 272 275 280
269 264 271 259 281 124 174 134 139 122 97 178 154 180 163 176 168 167 164 195 185 205 233 231 224 239 230 256 255 268 276 284 282 286 286 283 284 278 278 287 289 281 273 273
270 260 252 128 98 173 247 153 143 123 172 153 193 166 169 166 183 102 171 194 195 199 221 225 190 210 225 241 257 268 282 289 290 303 311 302 278 276 274 267 265 264 264 260
261 173 167 152 188 142 123 135 162 149 125 132 195 218 151 177 167 184 191 188 227 205 217 189 225 244 250 256 260 269 276 270 272 287 308 314 307 292 276 267 265 265 267 265
122 161 94 108 124 80 77 105 158 108 160 182 203 198 171 210 185 187 207 210 223 226 178 200 212 249 240 236 242 247 242 251 251 267 283 299 294 291 286 280 277 273 266 261
139 102 86 111 115 149 178 143 131 192 199 167 177 187 213 166 199 216 177 219 227 246 144 220 245 257 268 262 254 229 247 257 272 277 276 276 288 291 291 290 285 277 274 267
82 66 82 212 100 154 179 171 178 192 177 153 148 154 155 153 229 199 181 212 220 140 196 235 250 271 276 272 238 225 253 276 278 278 276 273 272 268 280 293 286 280 272 266
94 124 136 213 186 203 183 172 159 171 160 148 172 150 164 161 179 197 207 193 247 226 233 233 267 235 264 259 238 263 278 288 288 290 292 287 279 279 286 290 286 280 268 266
111 182 192 191 113 102 116 87 119 147 144 157 136 143 169 166 163 196 234 185 227 224 239 269 3 69 231 255 279 294 296 295 294 300 298 292 287 287 287 287 292 286 276 258
78 125 163 149 132 131 155 142 119 142 150 153 174 149 164 165 183 199 207 223 224 244 248 284 347 263 268 271 281 288 293 294 291 294 293 289 288 286 284 294 290 279 277 242
165 113 130 130 118 133 136 158 148 157 166 166 160 174 175 104 201 219 239 235 253 281 297 291 261 268 282 294 296 294 289 290 291 292 292 289 289 281 285 284 302 306 287 256